User: anonymous   Login
Location: Unspecified
(0.0000°N, 0.0000°E)
Time: 11:57:51
(UTC+00:00)
Language:

GEOEYE 1 - Orbit

View from above orbital plane
View from above orbital plane
View from above satellite
View from above satellite

Ground track
Ground track

The orbit data is extracted from the following two-line orbital elements,

1 33331U 08042A   16207.11077225 -.00003597  00000-0 -67643-3 0  9993
2 33331  98.1417 280.5584 0008971 209.1336 150.9479 14.64072297421246
Epoch (UTC): 25 July 2016 02:39:30
Eccentricity: 0.0008971
inclination: 98.1417°
perigee height: 674 km
apogee height: 686 km
right ascension of ascending node: 280.5584°
argument of perigee: 209.1336°
revolutions per day: 14.64072297
mean anomaly at epoch: 150.9479°
orbit number at epoch: 42124

The dashed part of the orbit path shows where the satellite is in the earth's shadow,  

DLR